Wind_Speed
13 14 14 13 11 11 11 12 12 12 12 11 12 12 12 13 14 15 13 11 10 13 16 17 18 15 10 12 12 11 4 3 6 11 12 20 23 23 12 16 11 7 21 27 29
13 14 14 13 13 11 10 11 12 13 12 11 12 13 12 12 14 15 14 10 11 13 17 17 17 14 12 12 11 16 4 3 3 4 10 19 19 22 12 16 13 22 26 29 29
13 13 13 14 13 13 11 10 11 12 13 12 12 13 12 11 11 15 14 14 13 13 17 15 12 13 12 9 9 16 5 7 10 7 13 22 18 23 19 15 12 29 29 29 27
12 12 12 12 13 13 12 11 11 11 12 13 12 13 12 10 3 13 14 15 15 15 19 16 14 15 13 13 11 14 5 5 9 11 19 19 17 21 18 18 19 21 27 28 25
12 11 11 10 11 11 12 12 12 11 11 12 12 13 13 13 9 6 14 17 17 16 19 18 16 15 13 11 10 12 5 4 5 9 14 16 17 17 17 24 22 18 27 26 24
13 12 11 10 10 10 10 11 11 11 10 11 12 13 14 11 18 14 10 17 17 15 19 17 15 15 10 11 13 10 6 5 9 6 4 13 18 18 19 17 19 26 27 25 23
11 9 10 10 10 9 9 10 10 11 10 10 12 13 15 16 16 14 11 16 17 16 14 16 12 14 12 10 14 14 11 7 10 12 15 9 16 19 19 19 18 27 28 24 23
12 10 10 9 9 9 9 8 8 9 9 9 10 12 12 20 14 13 12 17 19 17 12 13 14 16 15 9 12 17 12 15 19 14 13 6 15 21 28 18 23 29 27 25 24
11 10 9 8 8 6 6 6 5 7 8 8 9 9 5 15 14 11 11 12 17 15 15 12 16 14 13 14 14 18 21 21 17 14 17 12 16 21 26 29 27 30 27 25 24
11 9 9 7 6 3 1 1 2 2 6 7 5 9 10 9 12 13 15 16 16 14 15 16 13 14 17 18 23 23 23 21 18 25 13 13 12 20 22 30 31 29 27 26 26
11 9 6 5 3 0 5 10 7 11 4 12 8 5 7 9 15 13 14 14 15 15 16 14 15 20 21 22 21 22 16 16 9 23 17 8 9 21 27 17 28 30 28 26 25
12 9 6 4 3 3 10 7 6 6 5 6 8 1 3 15 14 14 16 16 19 18 16 13 21 17 18 18 25 23 15 13 11 23 11 9 18 26 26 25 33 32 31 28 27
14 11 8 4 3 3 6 4 3 3 5 10 12 13 12 14 12 15 18 17 15 18 20 20 13 18 18 20 24 23 23 17 24 16 13 13 20 15 23 30 36 31 28 33 31
13 13 12 7 4 10 10 7 4 6 5 14 11 11 14 13 13 15 18 18 12 17 19 20 15 18 18 20 22 21 16 22 29 15 13 14 9 17 23 34 27 31 32 28 33
10 11 10 8 7 9 9 5 7 2 6 10 12 7 11 17 10 15 18 19 14 15 20 22 18 19 20 21 19 25 14 14 22 14 28 19 8 14 20 18 17 23 23 26 31
8 8 8 5 8 9 7 4 2 6 1 7 12 10 13 15 13 13 16 19 14 16 20 19 17 15 20 19 15 21 14 14 10 15 17 27 19 14 20 5 12 11 14 22 27
7 5 6 7 5 3 3 2 7 8 1 7 13 10 17 16 14 15 18 18 18 16 22 19 21 18 19 20 19 22 14 14 12 12 13 27 14 9 25 10 3 23 24 22 22
6 3 3 5 8 3 1 3 6 12 5 6 11 12 16 17 15 14 16 18 19 18 18 21 20 22 21 20 17 21 24 18 14 12 15 21 13 13 21 27 9 17 23 22 19
6 0 7 4 3 2 2 1 9 2 10 4 9 11 16 11 6 16 19 16 20 15 3 22 20 22 15 20 10 24 26 24 21 24 19 14 19 16 12 14 27 27 23 21 22
7 3 6 9 6 4 8 14 9 4 4 5 10 10 9 11 14 14 14 6 1 5 4 10 14 23 18 16 15 15 17 27 30 14 14 15 20 19 21 16 27 30 27 26 23
8 4 8 4 2 6 6 1 1 3 1 3 3 4 7 12 12 10 4 6 9 1 8 9 12 14 17 20 20 16 15 21 26 27 10 11 7 23 19 16 17 21 21 24 28
6 7 8 4 4 5 12 1 4 2 2 2 5 6 5 5 6 3 13 2 9 7 5 8 5 16 18 14 20 23 21 21 24 24 20 7 3 13 16 16 16 16 18 17 18
7 3 7 5 7 8 3 2 2 0 3 1 1 2 2 5 4 1 3 9 3 2 5 4 11 6 10 10 15 14 18 18 20 25 25 8 9 19 23 21 21 19 13 14 15
9 4 3 2 3 4 2 1 2 5 3 3 3 3 4 6 7 7 2 1 5 5 6 8 11 9 6 10 8 23 21 16 17 18 20 7 25 26 23 20 17 19 18 16 13
4 3 3 2 3 1 2 1 2 2 3 3 5 7 9 7 8 8 10 4 7 8 5 4 10 9 5 9 7 7 27 21 15 19 17 17 22 22 17 18 17 16 15 15 14
2 1 3 3 4 2 2 1 1 1 2 3 5 6 8 9 4 5 6 7 7 7 6 6 11 9 10 7 8 5 2 7 12 16 7 12 20 18 15 15 14 16 16 15 13
3 1 3 7 1 2 4 3 3 2 0 2 1 1 5 4 2 2 5 3 5 8 5 9 9 13 15 14 14 14 13 12 12 11 7 13 15 24 21 15 15 16 15 16 15
Wind_Direction
292 284 285 285 278 273 270 271 270 265 260 248 240 233 229 228 224 222 213 212 209 204 198 194 188 192 198 222 229 279 318 1 158 176 180 177 167 152 136 147 137 111 152 151 143
311 302 291 282 283 278 273 265 264 263 258 249 240 238 228 227 229 224 220 206 210 202 194 194 187 192 208 228 233 251 183 341 357 233 200 168 161 169 139 151 128 134 148 148 140
323 312 302 295 284 279 277 272 265 259 255 251 239 235 231 224 231 233 222 203 200 195 187 176 190 197 208 224 230 258 326 49 11 155 182 175 166 177 163 141 164 157 152 149 146
313 311 308 295 288 284 274 270 265 261 252 247 239 228 228 212 118 241 219 205 200 192 189 168 191 204 208 220 227 232 279 99 69 138 137 171 179 170 162 125 152 164 152 151 149
314 308 301 299 292 283 276 265 260 260 256 244 236 227 219 208 233 220 216 204 201 195 189 175 192 202 210 217 229 244 154 119 80 127 170 169 173 168 156 148 152 163 154 153 151
313 310 306 302 293 285 271 265 257 253 253 243 233 222 211 180 240 211 216 206 199 193 187 183 200 200 209 232 221 224 212 159 169 144 190 184 181 171 151 154 172 159 159 154 156
322 303 294 299 296 285 274 261 252 247 241 239 230 221 215 176 229 232 212 202 197 189 175 191 183 204 230 230 216 213 208 169 209 153 155 207 183 182 166 150 169 161 160 157 158
338 323 304 301 298 292 276 267 246 238 232 230 223 218 200 230 226 230 199 193 190 182 178 197 199 210 213 213 224 227 230 214 188 186 175 183 163 173 167 153 164 167 162 162 161
334 320 310 304 304 305 288 281 255 233 218 214 203 199 227 247 225 196 179 187 189 178 185 204 213 207 208 223 218 211 216 212 162 193 180 174 174 170 173 153 165 165 165 166 165
343 333 322 307 305 315 354 30 36 258 201 180 195 180 265 259 198 181 178 184 183 182 191 198 210 211 208 204 213 204 226 186 190 183 188 196 205 186 168 157 167 168 169 171 174
359 354 343 318 301 204 118 96 43 347 207 139 296 171 287 186 182 180 179 180 180 195 196 212 203 209 205 212 216 210 214 207 237 174 180 166 197 188 177 162 172 174 174 178 183
15 17 10 352 320 159 148 90 284 208 269 187 161 191 182 175 181 183 189 181 192 203 202 211 216 210 213 220 228 241 254 174 166 164 177 144 155 174 182 178 175 182 178 184 183
18 25 32 39 74 135 176 11 238 288 258 227 217 201 177 198 204 200 189 178 203 209 208 211 229 212 218 218 223 229 223 187 197 141 102 152 155 191 196 179 172 183 184 191 195
20 27 35 53 75 48 12 283 344 269 263 189 201 214 212 198 217 213 200 189 212 215 210 218 218 212 215 223 213 233 227 166 184 159 156 160 152 195 213 207 222 174 179 184 197
20 30 30 36 60 79 249 307 264 185 272 153 181 192 191 197 209 201 205 195 219 213 208 219 217 214 214 212 215 219 215 199 219 200 142 188 158 200 211 253 147 172 180 186 191
9 28 30 40 80 27 324 300 266 236 279 148 172 188 187 202 197 198 201 200 224 224 218 223 214 219 211 209 215 217 266 204 210 210 188 200 203 174 200 192 150 170 182 188 186
357 34 48 46 114 307 311 72 218 259 220 177 196 208 196 200 197 192 197 204 205 210 212 219 220 215 206 205 212 213 222 204 209 226 248 187 205 167 198 181 164 167 174 165 179
340 1 90 87 100 44 317 314 2 288 347 219 210 190 200 200 195 196 204 212 213 210 204 208 216 201 204 211 211 208 217 203 203 223 228 177 144 136 167 198 328 188 191 170 181
311 314 43 62 62 286 247 99 214 204 272 252 221 208 203 207 251 191 199 210 215 217 257 206 222 198 193 210 230 199 227 222 224 220 225 127 111 142 191 206 201 206 208 187 177
322 272 282 277 242 279 294 293 228 281 275 248 238 204 189 192 226 199 199 228 207 191 193 274 288 185 196 215 227 236 218 236 249 271 253 142 156 164 172 189 198 210 214 205 197
96 51 192 312 254 240 235 47 350 334 125 303 274 252 195 252 230 201 132 191 231 44 220 264 177 205 199 211 224 224 238 237 246 246 238 169 115 146 161 204 190 187 191 198 196
151 275 246 283 240 297 136 259 233 320 333 331 332 326 182 203 322 227 204 90 227 205 233 270 239 190 211 222 212 231 234 228 242 249 264 78 83 142 169 206 194 188 182 185 193
115 227 300 156 265 261 257 215 190 28 261 271 269 231 187 215 171 70 263 224 194 183 220 248 210 166 156 202 217 222 224 240 240 248 268 190 163 177 201 204 184 194 197 195 198
141 233 253 246 240 5 156 225 278 276 272 239 256 269 242 216 207 219 199 218 217 235 229 236 271 337 336 345 287 215 222 225 242 264 264 62 161 189 207 203 187 192 198 205 201
86 323 194 41 121 227 164 107 243 304 275 251 260 229 244 251 234 225 209 226 223 237 252 235 283 291 274 249 307 312 215 224 233 257 317 130 151 183 187 172 188 194 187 187 196
350 341 176 309 253 141 103 164 209 129 36 296 246 257 235 254 249 242 217 213 219 247 223 249 272 294 273 259 257 301 148 189 221 242 136 134 142 170 185 182 170 169 181 193 193
190 334 118 302 229 204 142 162 208 126 33 128 121 251 212 224 251 290 214 183 219 206 230 249 260 268 266 261 259 249 238 236 236 236 216 180 187 185 183 185 176 170 190 199 193
Height
3126 3125 3125 3124 3124 3124 3124 3124 3124 3124 3125 3126 3126 3127 3128 3129 3129 3131 3132 3136 3137 3139 3142 3146 3148 3151 3154 3157 3160 3160 3156 3158 3158 3159 3161 3164 3166 3171 3171 3177 3178 3178 3181 3184 3190
3125 3123 3122 3122 3122 3122 3122 3122 3122 3123 3123 3123 3124 3125 3125 3127 3128 3129 3132 3134 3136 3138 3140 3145 3148 3151 3154 3157 3162 3161 3154 3153 3159 3157 3159 3163 3167 3171 3175 3177 3181 3182 3185 3187 3192
3123 3122 3120 3120 3119 3120 3120 3120 3120 3120 3121 3121 3122 3123 3124 3125 3127 3127 3130 3132 3134 3137 3139 3144 3150 3153 3156 3160 3162 3156 3151 3158 3156 3156 3158 3163 3166 3170 3173 3178 3179 3181 3183 3189 3195
3120 3119 3118 3117 3117 3117 3118 3118 3118 3118 3119 3119 3120 3121 3123 3125 3129 3126 3128 3131 3133 3135 3138 3143 3151 3154 3158 3160 3161 3158 3159 3159 3156 3157 3159 3163 3165 3168 3173 3172 3181 3183 3187 3191 3197
3118 3116 3115 3114 3114 3114 3115 3116 3116 3116 3116 3117 3118 3120 3121 3124 3123 3124 3127 3129 3132 3135 3137 3142 3150 3155 3157 3160 3162 3161 3160 3158 3159 3160 3162 3163 3167 3169 3172 3178 3183 3185 3189 3193 3199
3116 3114 3113 3112 3111 3111 3111 3112 3113 3113 3114 3115 3116 3118 3120 3124 3120 3123 3125 3129 3132 3135 3137 3144 3150 3154 3158 3159 3161 3162 3159 3160 3160 3161 3162 3164 3167 3170 3172 3178 3181 3186 3191 3195 3199
3114 3113 3111 3109 3109 3108 3108 3109 3110 3111 3111 3113 3114 3116 3119 3120 3121 3122 3124 3128 3131 3134 3137 3144 3150 3155 3156 3157 3159 3159 3159 3162 3158 3162 3160 3164 3166 3168 3173 3176 3180 3186 3191 3196 3200
3114 3111 3110 3108 3107 3106 3106 3107 3107 3108 3109 3110 3112 3114 3116 3116 3119 3121 3123 3126 3130 3133 3141 3145 3148 3150 3154 3157 3158 3159 3159 3159 3157 3159 3162 3164 3166 3167 3171 3173 3178 3187 3191 3195 3199
3112 3110 3108 3107 3105 3104 3105 3106 3106 3107 3108 3109 3112 3114 3117 3115 3118 3120 3124 3128 3130 3134 3139 3144 3145 3147 3153 3154 3156 3156 3155 3155 3159 3159 3159 3165 3165 3168 3171 3173 3181 3187 3192 3195 3199
3111 3109 3108 3106 3104 3104 3104 3105 3107 3108 3108 3109 3112 3116 3116 3116 3118 3121 3124 3130 3132 3136 3140 3141 3142 3145 3149 3151 3149 3151 3149 3152 3154 3158 3156 3161 3164 3167 3171 3172 3180 3187 3191 3195 3197
3110 3108 3106 3106 3104 3103 3105 3107 3110 3111 3108 3109 3115 3114 3115 3116 3119 3120 3125 3128 3133 3135 3137 3138 3142 3142 3145 3147 3147 3147 3147 3152 3153 3151 3153 3159 3163 3166 3170 3168 3180 3186 3190 3193 3196
3109 3107 3106 3105 3105 3104 3104 3106 3109 3110 3111 3109 3113 3116 3117 3118 3118 3121 3124 3129 3131 3134 3137 3141 3138 3141 3144 3146 3144 3145 3147 3148 3152 3146 3151 3158 3164 3169 3169 3171 3176 3182 3186 3191 3194
3110 3107 3106 3106 3106 3106 3106 3107 3106 3109 3111 3111 3112 3115 3118 3119 3120 3121 3123 3127 3131 3134 3135 3136 3137 3139 3142 3142 3142 3142 3143 3142 3147 3148 3150 3158 3164 3168 3169 3168 3170 3181 3186 3187 3187
3110 3108 3106 3105 3108 3106 3109 3108 3109 3110 3111 3110 3111 3113 3116 3118 3121 3122 3122 3128 3131 3132 3134 3135 3136 3137 3138 3139 3140 3139 3140 3142 3146 3140 3147 3154 3165 3168 3166 3162 3145 3171 3178 3183 3185
3111 3109 3107 3105 3106 3107 3112 3110 3109 3112 3106 3109 3111 3113 3115 3116 3119 3120 3122 3126 3128 3130 3133 3132 3133 3134 3135 3137 3138 3137 3140 3146 3139 3140 3143 3155 3157 3160 3162 3140 3154 3166 3174 3179 3183
3112 3109 3109 3108 3107 3108 3109 3110 3112 3116 3105 3108 3109 3111 3114 3115 3118 3119 3122 3124 3127 3128 3129 3130 3132 3133 3134 3136 3137 3137 3137 3137 3139 3140 3140 3144 3149 3159 3161 3159 3165 3169 3171 3176 3181
3113 3111 3109 3109 3108 3111 3111 3113 3115 3109 3110 3108 3108 3111 3112 3114 3116 3118 3121 3123 3124 3125 3125 3128 3128 3130 3133 3135 3136 3138 3138 3138 3140 3139 3136 3137 3145 3150 3155 3159 3158 3163 3170 3174 3180
3113 3111 3111 3110 3109 3110 3112 3116 3116 3113 3110 3109 3107 3109 3111 3112 3114 3116 3120 3121 3122 3122 3121 3125 3124 3127 3130 3131 3135 3135 3136 3134 3137 3137 3136 3138 3144 3153 3153 3154 3163 3165 3170 3172 3175
3112 3111 3111 3110 3111 3112 3114 3115 3114 3114 3110 3109 3108 3108 3109 3106 3111 3114 3116 3118 3119 3121 3120 3121 3120 3125 3127 3131 3135 3132 3133 3134 3132 3133 3132 3140 3149 3155 3154 3156 3160 3164 3170 3172 3173
3111 3108 3111 3115 3113 3114 3115 3112 3111 3112 3110 3109 3107 3107 3111 3114 3114 3112 3114 3116 3117 3119 3122 3122 3121 3119 3126 3129 3131 3132 3137 3136 3131 3132 3126 3139 3145 3146 3151 3153 3156 3159 3163 3168 3171
3110 3109 3112 3113 3113 3114 3114 3111 3112 3111 3110 3110 3109 3109 3112 3116 3111 3112 3119 3120 3122 3120 3123 3122 3124 3126 3126 3127 3131 3133 3132 3131 3131 3128 3125 3139 3146 3152 3151 3151 3152 3154 3159 3163 3167
3110 3111 3113 3111 3114 3110 3110 3112 3112 3112 3111 3112 3110 3113 3113 3114 3114 3119 3117 3120 3118 3120 3122 3122 3121 3126 3123 3126 3128 3130 3130 3131 3130 3127 3125 3135 3150 3148 3150 3149 3151 3153 3156 3160 3165
3108 3110 3111 3111 3111 3109 3109 3111 3112 3112 3112 3113 3114 3114 3113 3116 3118 3117 3119 3119 3119 3121 3121 3121 3120 3122 3122 3126 3126 3127 3129 3128 3128 3127 3125 3133 3145 3145 3145 3147 3151 3155 3158 3160 3164
3107 3110 3111 3111 3110 3110 3110 3111 3112 3111 3113 3113 3114 3114 3115 3116 3117 3119 3120 3120 3119 3121 3122 3123 3121 3123 3124 3123 3122 3127 3128 3129 3129 3128 3127 3132 3136 3141 3145 3149 3151 3153 3157 3160 3163
3108 3108 3108 3110 3110 3110 3111 3112 3112 3112 3112 3113 3113 3114 3114 3116 3117 3116 3118 3120 3120 3120 3122 3124 3123 3124 3125 3127 3124 3121 3125 3128 3131 3131 3131 3137 3140 3143 3147 3150 3152 3154 3157 3159 3161
3107 3110 3110 3110 3109 3111 3111 3112 3113 3113 3114 3113 3114 3114 3115 3115 3117 3113 3116 3119 3121 3122 3123 3125 3124 3126 3126 3126 3126 3124 3124 3127 3132 3134 3135 3137 3141 3145 3148 3150 3152 3154 3156 3158 3161
3106 3109 3110 3110 3111 3112 3111 3112 3113 3114 3114 3113 3114 3114 3115 3113 3113 3114 3116 3117 3119 3121 3124 3125 3126 3126 3125 3126 3126 3127 3129 3131 3133 3135 3136 3135 3139 3140 3145 3148 3152 3154 3155 3157 3160